Wind_Speed
37 38 37 35 32 28 22 16 16 14 15 18 18 21 20 19 20 21 21 20 19 19 21 23 23 24 23 21 20 22 25 27 28 29 30 32 32 32 33 35 37 38 39 37
37 37 36 35 32 30 30 26 21 16 17 22 22 24 24 21 20 23 23 23 23 23 24 24 25 26 27 25 24 24 27 29 31 32 33 33 33 34 35 37 38 39 39 37
34 32 34 34 32 32 33 30 25 20 22 29 29 27 28 27 26 26 27 28 28 28 27 26 27 29 30 29 27 27 29 32 34 35 34 34 35 35 36 38 40 40 38 36
30 29 29 33 33 33 34 32 30 29 28 28 31 29 28 29 30 30 30 32 32 30 29 29 31 32 32 32 32 31 32 34 35 36 35 36 37 37 37 39 40 41 39 37
27 28 29 31 32 32 30 30 31 33 34 32 31 29 24 25 29 30 33 35 34 32 33 33 33 34 35 35 36 35 34 35 36 36 36 37 38 38 39 40 41 41 40 38
22 25 27 29 30 30 28 26 26 31 34 36 33 31 24 23 27 32 37 38 36 34 34 34 35 36 37 38 38 38 36 36 36 37 37 38 39 40 41 42 42 41 39 38
24 24 26 28 27 27 28 27 25 27 32 33 28 30 29 30 32 35 39 40 38 36 36 36 37 38 38 38 38 37 37 36 37 37 38 39 40 41 42 42 42 40 39 38
17 20 23 26 27 24 25 27 26 19 14 14 17 21 25 34 37 38 39 42 43 42 41 40 38 37 36 35 35 36 36 36 36 37 38 40 41 42 42 42 41 41 40 40
11 11 16 20 23 25 22 24 23 23 21 17 13 22 31 32 34 37 41 45 46 46 44 41 37 34 33 32 33 34 35 36 37 38 39 40 41 41 42 42 43 43 43 42
15 12 12 15 20 22 23 19 20 25 24 20 14 21 30 31 31 31 34 38 41 41 40 37 34 31 31 31 32 33 34 36 37 38 39 41 41 43 44 45 45 45 45 45
15 14 12 13 15 18 21 22 22 23 23 22 19 21 26 29 29 30 31 30 30 31 32 31 30 30 30 31 32 33 35 36 38 39 41 42 43 45 46 46 47 47 48 48
16 16 15 14 14 14 17 20 22 24 24 23 23 25 30 30 30 30 30 28 27 28 29 30 30 31 31 32 33 34 36 37 39 40 42 43 44 45 46 47 49 50 50 51
14 14 15 14 15 18 19 19 22 24 25 26 24 27 31 31 32 33 32 30 29 29 30 31 32 32 33 34 35 36 38 39 41 42 43 44 46 47 48 49 51 52 53 53
12 14 16 16 17 20 23 23 23 24 25 26 27 30 32 31 32 34 34 31 31 31 32 33 34 35 36 38 39 40 42 43 44 45 46 47 48 49 51 52 53 54 54 54
11 14 17 17 17 15 17 23 24 25 27 26 28 32 35 36 35 35 35 35 34 34 34 35 37 39 40 41 42 43 45 46 47 48 49 51 52 52 53 53 54 54 54 55
10 13 16 17 16 16 16 18 21 21 22 26 29 33 34 35 35 33 32 31 31 31 34 37 39 41 42 43 45 46 47 48 49 50 51 52 52 52 53 53 53 54 55 55
8 10 13 16 18 19 20 23 24 26 27 28 31 34 36 37 38 36 34 32 31 33 36 38 40 42 43 44 45 47 48 49 49 49 49 49 49 50 51 51 51 52 54 55
8 9 10 12 16 20 25 27 26 28 30 30 33 36 42 44 43 41 39 37 36 37 37 37 38 40 40 41 41 42 43 42 43 44 44 45 47 48 49 50 51 52 53 54
10 9 9 10 11 18 24 26 27 27 29 29 30 32 35 38 39 40 40 39 39 38 37 36 34 34 36 38 39 40 40 40 41 42 43 44 46 48 49 50 51 51 52 53
12 10 10 11 14 18 21 22 23 24 29 30 30 30 32 34 34 34 34 34 35 36 36 36 36 36 37 37 38 40 40 40 41 42 43 44 45 47 48 48 49 49 50 50
13 12 12 13 15 18 19 20 21 22 24 25 25 26 27 29 30 29 29 29 29 30 31 32 34 35 36 37 37 38 40 40 41 42 43 43 44 44 45 46 47 47 47 47
14 14 14 14 15 16 16 17 18 19 20 21 22 22 23 24 24 25 26 27 28 29 31 32 33 34 35 35 36 37 38 39 40 40 41 41 41 42 42 43 43 44 44 43
15 14 15 15 15 15 15 15 16 17 18 19 19 20 20 20 21 23 24 25 27 28 28 29 30 31 32 33 34 35 36 36 37 37 38 38 39 40 40 40 40 40 40 40
17 15 15 15 15 13 13 14 15 15 16 16 18 19 20 20 20 21 23 24 24 24 25 26 27 29 30 31 32 33 34 34 35 36 37 37 37 37 37 37 37 36 35 34
17 16 15 15 15 14 12 12 13 14 15 15 16 17 18 19 19 20 20 20 21 22 23 24 25 26 27 29 30 31 32 33 34 34 35 34 34 33 32 32 31 30 29 27
17 16 15 14 14 13 13 12 12 13 13 14 14 15 15 16 17 18 18 18 19 20 21 22 23 25 26 28 29 30 30 31 31 30 30 29 28 27 27 25 24 23 22 21
Wind_Direction
218 217 216 217 217 214 200 219 235 234 234 240 216 188 183 214 219 216 223 228 236 243 249 253 257 264 271 276 281 288 291 294 296 297 298 299 302 305 307 309 310 314 316 318
217 215 215 217 215 211 205 205 206 212 220 235 229 206 195 210 228 219 216 224 229 233 240 248 256 263 270 274 278 283 287 290 291 292 292 294 297 299 300 302 305 309 314 321
216 215 216 215 213 210 212 209 196 196 216 230 230 221 209 210 226 232 226 224 228 232 239 248 256 264 269 273 276 279 282 286 286 286 289 289 290 292 295 299 302 306 311 316
213 209 213 216 214 213 216 214 205 198 208 230 240 235 225 222 227 236 240 240 238 240 246 251 255 261 267 273 276 277 280 282 283 284 285 285 287 288 291 294 298 302 305 308
209 208 211 215 216 216 218 216 216 212 215 222 235 240 235 240 243 245 246 246 245 246 248 253 258 263 268 272 275 278 280 280 280 281 281 281 283 286 289 291 294 297 299 302
205 210 214 218 218 219 216 215 220 222 224 230 233 238 238 236 243 244 246 248 252 256 258 260 262 265 268 272 275 278 278 277 277 277 278 280 283 285 287 289 291 293 296 299
206 210 217 219 218 219 217 212 218 229 230 238 243 243 237 232 236 238 245 253 259 262 264 266 267 267 268 270 272 273 274 274 275 276 277 280 281 283 285 288 289 291 294 296
218 218 223 225 220 216 225 217 214 220 244 264 266 260 243 239 240 240 244 250 256 262 266 269 269 268 268 268 268 270 271 271 273 274 276 278 279 282 284 287 289 291 293 294
209 229 233 232 227 218 222 227 219 211 207 228 239 237 240 245 246 246 246 249 254 260 265 268 268 266 265 265 265 266 267 269 270 272 275 277 279 282 285 287 289 291 292 292
184 193 213 230 227 223 221 222 223 217 217 226 224 234 244 249 251 255 255 256 257 259 261 262 262 263 263 263 263 263 264 266 269 271 274 277 279 282 284 286 288 289 290 290
195 190 195 216 231 223 221 217 218 223 226 232 236 243 251 251 248 249 252 254 256 257 258 259 260 261 261 261 261 262 264 265 267 270 273 276 278 281 283 284 286 287 288 289
203 203 203 209 221 226 226 225 223 227 225 227 233 251 254 256 258 257 255 254 256 257 257 258 259 259 259 260 261 263 264 266 268 270 273 276 278 280 282 283 284 286 287 288
213 213 215 218 219 222 222 225 223 228 229 229 231 247 254 256 258 261 258 254 253 252 252 254 256 258 260 262 262 264 266 268 269 271 274 276 278 280 281 282 284 285 285 286
217 215 219 236 236 228 221 217 218 225 230 231 232 242 249 254 257 258 256 252 249 249 250 252 255 259 262 263 264 265 267 269 271 273 275 276 278 279 280 281 283 283 284 285
231 225 229 242 262 263 240 222 219 221 226 230 233 237 245 250 253 257 254 250 248 249 252 255 258 261 263 264 265 266 269 271 273 274 275 276 277 278 279 280 281 282 283 285
253 244 240 243 254 264 264 249 238 240 234 234 237 239 246 250 253 255 252 250 251 255 258 259 260 262 264 266 268 269 271 272 273 274 276 276 277 277 278 279 281 282 284 287
280 264 252 244 241 248 255 255 256 256 254 251 248 248 250 256 260 265 269 270 269 267 265 264 265 265 266 268 270 270 270 271 272 273 275 276 277 279 280 282 284 287 289 290
311 288 269 255 246 244 251 256 260 262 262 261 257 255 255 259 264 266 271 273 274 273 273 272 270 269 269 269 269 270 270 272 273 275 278 281 284 286 288 290 291 291 291 291
325 305 282 263 249 250 252 258 260 264 264 262 261 260 261 263 265 268 270 273 274 275 277 277 276 273 271 269 270 271 276 279 281 284 287 289 290 292 292 292 292 292 292 292
330 314 294 278 262 256 262 267 268 270 268 266 267 268 269 270 272 273 274 275 275 274 275 275 275 276 275 277 281 285 289 292 293 294 294 294 293 293 293 293 293 293 293 294
328 315 302 291 280 275 277 276 275 274 274 272 272 272 272 273 274 277 277 276 275 275 275 276 279 283 287 291 294 294 295 296 296 296 296 296 295 295 296 296 296 296 296 296
326 317 309 301 293 289 287 281 278 278 278 277 277 276 277 277 278 279 278 279 279 282 284 286 288 292 295 297 297 297 298 298 298 298 299 299 299 299 298 298 298 297 297 297
329 321 312 308 303 297 292 287 285 284 284 283 283 283 284 285 286 286 286 288 288 290 291 293 295 296 298 299 300 300 301 301 301 301 301 301 301 301 301 300 300 299 299 299
332 326 315 312 312 307 299 293 291 289 289 288 286 288 289 292 293 291 291 292 294 295 296 298 298 300 301 302 303 304 305 305 305 305 304 304 303 303 303 303 303 302 302 302
330 326 321 316 315 310 307 302 297 293 293 295 293 292 294 295 297 298 298 296 296 299 301 303 304 305 307 308 309 310 310 309 308 308 307 307 306 306 307 308 308 308 308 309
331 328 323 321 318 313 312 308 302 299 296 298 299 297 298 299 301 302 302 302 303 305 307 309 311 312 313 314 314 314 314 314 313 312 312 311 311 312 314 315 315 316 317 319
Height
5780 5787 5794 5800 5806 5812 5816 5822 5827 5831 5834 5836 5840 5845 5848 5854 5856 5860 5861 5862 5863 5863 5864 5865 5865 5864 5865 5867 5869 5870 5868 5867 5867 5866 5865 5864 5863 5862 5861 5859 5857 5855 5853 5851
5776 5783 5790 5795 5801 5807 5810 5815 5823 5830 5834 5834 5837 5841 5845 5850 5852 5855 5857 5859 5859 5860 5860 5861 5861 5861 5861 5863 5865 5865 5864 5863 5861 5860 5860 5859 5858 5857 5855 5853 5851 5850 5848 5846
5772 5780 5784 5789 5795 5801 5806 5811 5818 5827 5831 5830 5833 5836 5841 5844 5848 5850 5852 5853 5853 5855 5856 5858 5858 5858 5857 5858 5859 5860 5859 5857 5855 5854 5854 5853 5852 5851 5849 5847 5846 5844 5843 5842
5767 5774 5779 5785 5791 5796 5801 5807 5812 5818 5824 5826 5827 5831 5836 5839 5842 5844 5846 5847 5848 5851 5853 5854 5854 5853 5853 5853 5853 5853 5853 5851 5849 5848 5848 5846 5845 5844 5843 5842 5840 5838 5837 5836
5765 5771 5776 5781 5787 5791 5796 5802 5807 5811 5815 5819 5822 5825 5831 5834 5836 5838 5838 5838 5841 5844 5845 5847 5848 5848 5848 5847 5846 5846 5845 5844 5843 5842 5841 5839 5838 5837 5836 5835 5834 5832 5831 5829
5763 5768 5773 5778 5782 5787 5792 5798 5802 5805 5809 5812 5817 5820 5825 5829 5830 5830 5829 5830 5834 5837 5839 5841 5842 5842 5841 5841 5840 5838 5838 5836 5835 5834 5833 5831 5830 5829 5828 5827 5826 5825 5824 5822
5761 5765 5769 5774 5779 5784 5788 5793 5798 5801 5803 5807 5813 5814 5819 5820 5820 5821 5823 5825 5828 5830 5832 5833 5834 5834 5834 5833 5832 5830 5830 5829 5828 5826 5825 5824 5823 5822 5820 5819 5818 5817 5815 5814
5760 5765 5768 5771 5776 5781 5784 5789 5794 5800 5804 5807 5809 5809 5812 5811 5813 5817 5819 5820 5821 5822 5824 5825 5825 5825 5825 5824 5823 5822 5822 5821 5820 5819 5818 5817 5815 5813 5812 5811 5809 5808 5807 5805
5760 5764 5766 5769 5773 5777 5781 5785 5790 5794 5797 5801 5805 5806 5802 5803 5807 5810 5812 5813 5814 5814 5815 5815 5816 5816 5816 5816 5816 5815 5814 5813 5812 5811 5810 5809 5807 5806 5804 5802 5800 5799 5797 5795
5755 5760 5764 5766 5770 5774 5778 5782 5786 5789 5792 5795 5800 5800 5797 5798 5800 5801 5803 5804 5805 5806 5806 5806 5807 5807 5807 5808 5807 5807 5807 5806 5805 5804 5803 5801 5799 5798 5796 5794 5792 5790 5788 5785
5755 5758 5762 5765 5767 5771 5775 5777 5780 5785 5788 5792 5795 5796 5788 5788 5790 5792 5793 5794 5795 5796 5797 5797 5798 5799 5799 5799 5799 5799 5799 5798 5797 5796 5794 5793 5791 5789 5787 5785 5783 5780 5778 5775
5752 5756 5758 5762 5765 5767 5770 5773 5776 5779 5782 5785 5788 5789 5782 5783 5783 5783 5784 5786 5788 5789 5789 5790 5790 5790 5791 5791 5791 5791 5790 5790 5789 5787 5786 5784 5782 5780 5778 5775 5772 5770 5767 5764
5750 5753 5756 5759 5762 5763 5764 5767 5769 5772 5775 5777 5781 5782 5776 5777 5777 5776 5777 5778 5779 5781 5782 5782 5782 5782 5783 5783 5782 5782 5781 5780 5779 5778 5776 5774 5772 5770 5767 5764 5761 5758 5755 5752
5748 5750 5752 5753 5753 5754 5756 5759 5762 5765 5767 5770 5772 5771 5770 5770 5770 5769 5768 5769 5770 5772 5773 5774 5774 5774 5774 5774 5773 5772 5771 5770 5769 5767 5765 5763 5760 5758 5755 5752 5749 5746 5742 5739
5745 5747 5748 5748 5748 5749 5752 5754 5757 5757 5759 5761 5762 5763 5763 5763 5761 5758 5758 5760 5761 5763 5764 5765 5765 5765 5764 5764 5763 5762 5761 5759 5757 5755 5753 5751 5748 5745 5742 5739 5736 5732 5729 5725
5742 5743 5744 5745 5746 5747 5747 5748 5750 5751 5751 5752 5754 5755 5755 5754 5752 5751 5751 5751 5753 5754 5755 5756 5755 5754 5754 5753 5752 5750 5749 5747 5745 5742 5740 5738 5735 5732 5729 5726 5722 5719 5715 5712
5739 5739 5740 5741 5742 5743 5744 5743 5743 5744 5745 5747 5747 5748 5746 5745 5744 5744 5743 5744 5746 5746 5746 5745 5744 5744 5743 5741 5740 5738 5736 5734 5732 5730 5727 5725 5722 5719 5716 5712 5709 5705 5702 5698
5737 5736 5736 5737 5738 5740 5739 5737 5738 5738 5739 5740 5741 5741 5739 5738 5738 5738 5737 5738 5738 5737 5736 5735 5734 5733 5732 5730 5728 5726 5724 5722 5720 5717 5714 5712 5709 5706 5703 5699 5696 5692 5688 5684
5734 5733 5733 5733 5734 5733 5732 5731 5732 5732 5732 5732 5732 5732 5731 5731 5731 5731 5731 5731 5731 5729 5728 5726 5724 5723 5722 5720 5718 5715 5713 5710 5708 5705 5702 5699 5697 5693 5690 5686 5683 5679 5674 5670
5732 5731 5730 5729 5729 5728 5727 5726 5727 5728 5725 5725 5725 5725 5724 5724 5724 5724 5724 5723 5723 5721 5720 5718 5716 5714 5712 5710 5707 5705 5702 5700 5697 5694 5691 5688 5685 5681 5677 5673 5669 5665 5660 5656
5731 5729 5727 5726 5725 5723 5723 5722 5723 5723 5721 5720 5719 5718 5718 5717 5717 5717 5716 5715 5715 5714 5712 5710 5708 5705 5703 5701 5698 5696 5693 5690 5687 5684 5680 5676 5672 5669 5665 5660 5656 5651 5647 5643
5728 5726 5724 5723 5721 5721 5719 5718 5718 5717 5715 5714 5714 5713 5712 5711 5711 5710 5709 5708 5707 5706 5704 5702 5700 5698 5695 5693 5690 5687 5684 5680 5677 5673 5669 5665 5661 5657 5653 5648 5643 5639 5634 5630
5726 5724 5721 5720 5719 5716 5715 5714 5713 5711 5710 5710 5709 5708 5707 5706 5706 5705 5704 5702 5701 5699 5698 5696 5693 5691 5688 5685 5682 5678 5674 5671 5667 5663 5659 5655 5650 5646 5641 5637 5632 5628 5623 5619
5723 5721 5718 5716 5714 5713 5712 5710 5709 5708 5707 5706 5705 5704 5703 5702 5701 5700 5698 5697 5695 5694 5691 5689 5687 5684 5681 5678 5674 5670 5666 5662 5658 5654 5649 5645 5641 5636 5632 5627 5622 5618 5613 5609
5721 5718 5716 5714 5712 5710 5709 5708 5706 5705 5704 5702 5701 5700 5699 5697 5696 5695 5693 5692 5690 5688 5686 5684 5681 5678 5675 5671 5667 5663 5659 5654 5650 5645 5640 5636 5632 5627 5623 5618 5613 5609 5605 5601
5719 5717 5714 5712 5710 5708 5707 5705 5704 5702 5701 5699 5698 5696 5695 5694 5692 5691 5689 5687 5685 5684 5681 5679 5676 5672 5669 5665 5661 5657 5652 5647 5643 5638 5633 5629 5624 5620 5616 5612 5608 5603 5600 5596